Overview Statistics Trail Chart Weather Telemetry Raw packets
 

This is the latest recevied weather packets stored in our database for station/object K9ABJ. If no packets are shown the sender has not sent any weather packets the latest 10 day(s).

<< 105 106 107 108 109 110 111 >>
Time Temp. Humidity Pressure Rain* Wind** Luminosity Snow
1787788417 21.11° C 94% 1012.1 hPa 0 mm - 10 W/m² -
1787788112 21.11° C 94% 1012.1 hPa 0 mm - 16 W/m² -
1787787808 21.11° C 94% 1012.1 hPa 0 mm - 28 W/m² -
1787787507 21.11° C 94% 1012.3 hPa 0 mm - 31 W/m² -
1787787207 21.67° C 94% 1012.4 hPa 0 mm - 43 W/m² -
1787786906 21.67° C 94% 1012.3 hPa 0 mm - 54 W/m² -
1787786602 21.11° C 94% 1012.2 hPa 0 mm - 56 W/m² -
1787786296 20.56° C 94% 1012.5 hPa 0 mm - 66 W/m² -
1787785993 20.56° C 94% 1012.5 hPa 0 mm - 75 W/m² -
1787785692 20.56° C 94% 1012.6 hPa 0 mm - 83 W/m² -
1787785387 21.11° C 94% 1013 hPa 0 mm - 65 W/m² -
1787785086 20.56° C 93% 1012.6 hPa 0 mm - 104 W/m² -
1787784782 20.56° C 93% 1012.8 hPa 0 mm - 108 W/m² -
1787784481 21.67° C 94% 1012.6 hPa 0 mm - 193 W/m² -
1787784175 21.67° C 94% 1012.3 hPa 0 mm - 210 W/m² -
1787783876 21.67° C 94% 1012.5 hPa 0 mm - 228 W/m² -
1787783567 21.67° C 94% 1012.4 hPa 0.51 mm - 152 W/m² -
1787783261 21.11° C 94% 1012.6 hPa 7.87 mm - 150 W/m² -
1787782956 21.11° C 93% 1012.4 hPa 37.34 mm - 157 W/m² -
1787782656 21.67° C 93% 1012.7 hPa 33.02 mm - 70 W/m² -
1787782352 23.89° C 91% 1012 hPa 4.83 mm - 2 W/m² -
1787782047 24.44° C 90% 1011.9 hPa 2.29 mm - 16 W/m² -
1787781742 24.44° C 89% 1011.9 hPa 1.78 mm - 32 W/m² -
1787781439 24.44° C 87% 1011.9 hPa 0.51 mm - 34 W/m² -
1787781134 25° C 84% 1011.8 hPa 0 mm - 31 W/m² -

* Rain latest hour (hover to see other rain measurements)
** Current wind speed in m/s (hover to see current wind gust speed)